| time (UTC) | temp F | wind direction | speed MPH | gust MPH | rain 1hr in | rain 24hr in | rain mn in | humidity % | barometer mb |
| 20260905203026 | 92 | 84 | 3.0 | 9.0 | 0.00 | 0.00 | 0.00 | 64 | 1010.6 |
| 20260905202517 | 92 | 149 | 3.0 | 7.0 | 0.00 | 0.00 | 0.00 | 63 | 1010.8 |
| 20260905202029 | 92 | 80 | 3.0 | 9.0 | 0.00 | 0.00 | 0.00 | 63 | 1010.8 |
| 20260905201024 | 94 | 135 | 2.0 | 7.0 | 0.00 | 0.00 | 0.00 | 59 | 1010.8 |
| 20260905200504 | 95 | 104 | 2.0 | 6.0 | 0.00 | 0.00 | 0.00 | 55 | 1010.8 |
| 20260905200034 | 95 | 92 | 1.0 | 6.0 | 0.00 | 0.00 | 0.00 | 53 | 1011.0 |
| 20260905195505 | 95 | 308 | 1.0 | 4.0 | 0.00 | 0.01 | 0.00 | 56 | 1011.1 |
| 20260905195010 | 95 | 322 | 1.0 | 4.0 | 0.00 | 0.01 | 0.00 | 53 | 1011.0 |
| 20260905194518 | 95 | 44 | 3.0 | 7.0 | 0.00 | 0.01 | 0.00 | 52 | 1011.1 |
| 20260905194004 | 96 | 2 | 3.0 | 7.0 | 0.00 | 0.01 | 0.00 | 52 | 1011.1 |
| 20260905193030 | 96 | 13 | 2.0 | 4.0 | 0.00 | 0.01 | 0.00 | 53 | 1011.3 |
| 20260905192010 | 95 | 67 | 2.0 | 6.0 | 0.00 | 0.01 | 0.00 | 54 | 1011.4 |
| 20260905191524 | 95 | 55 | 3.0 | 8.0 | 0.00 | 0.01 | 0.00 | 54 | 1011.5 |
| 20260905190519 | 95 | 2 | 3.0 | 6.0 | 0.00 | 0.01 | 0.00 | 56 | 1011.6 |
| 20260905190027 | 94 | 358 | 2.0 | 6.0 | 0.00 | 0.01 | 0.00 | 51 | 1011.7 |
| 20260905185502 | 93 | 67 | 1.0 | 3.0 | 0.00 | 0.01 | 0.00 | 56 | 1011.8 |
| 20260905184528 | 93 | 72 | 2.0 | 5.0 | 0.00 | 0.01 | 0.00 | 58 | 1011.8 |
| 20260905184004 | 91 | 163 | 1.0 | 5.0 | 0.00 | 0.01 | 0.00 | 58 | 1011.8 |
| 20260905183511 | 91 | 237 | 1.0 | 3.0 | 0.00 | 0.01 | 0.00 | 55 | 1011.9 |
| 20260905183031 | 92 | 348 | 1.0 | 3.0 | 0.00 | 0.01 | 0.00 | 56 | 1012.1 |
| 20260905182517 | 91 | 71 | 1.0 | 3.0 | 0.00 | 0.01 | 0.00 | 59 | 1012.1 |
| 20260905182003 | 89 | 158 | 1.0 | 4.0 | 0.00 | 0.01 | 0.00 | 65 | 1012.3 |
| 20260905181517 | 87 | 174 | 0.0 | 2.0 | 0.00 | 0.01 | 0.00 | 70 | 1012.4 |
| 20260905181006 | 87 | 133 | 0.0 | 2.0 | 0.00 | 0.01 | 0.00 | 72 | 1012.6 |
| 20260905180503 | 86 | 133 | 1.0 | 2.0 | 0.00 | 0.01 | 0.00 | 70 | 1012.7 |
| 20260905180029 | 86 | 133 | 1.0 | 2.0 | 0.00 | 0.01 | 0.00 | 73 | 1012.8 |
| 20260905175506 | 87 | 142 | 1.0 | 3.0 | 0.00 | 0.95 | 0.00 | 71 | 1012.9 |
| 20260905175009 | 88 | 181 | 1.0 | 3.0 | 0.00 | 0.95 | 0.00 | 65 | 1012.9 |
| 20260905174518 | 89 | 348 | 1.0 | 3.0 | 0.00 | 0.95 | 0.00 | 62 | 1013.1 |
| 20260905174136 | 90 | 261 | 1.0 | 3.0 | 0.00 | 0.95 | 0.00 | 61 | 1013.1 |
| 20260905172004 | 89 | 221 | 1.0 | 3.0 | 0.00 | 0.95 | 0.00 | 61 | 1013.2 |
| 20260905171518 | 89 | 18 | 1.0 | 3.0 | 0.00 | 0.95 | 0.00 | 61 | 1013.3 |
| 20260905170502 | 92 | 353 | 2.0 | 6.0 | 0.00 | 0.95 | 0.00 | 58 | 1013.4 |
| 20260905170030 | 91 | 318 | 2.0 | 4.0 | 0.00 | 0.95 | 0.00 | 59 | 1013.4 |
| 20260905165505 | 90 | 320 | 1.0 | 3.0 | 0.00 | 0.95 | 0.00 | 60 | 1013.3 |
| 20260905164004 | 89 | 152 | 1.0 | 4.0 | 0.00 | 0.95 | 0.00 | 60 | 1013.4 |
| 20260905163026 | 89 | 123 | 2.0 | 6.0 | 0.00 | 0.95 | 0.00 | 61 | 1013.5 |
| 20260905162502 | 89 | 237 | 2.0 | 6.0 | 0.00 | 0.95 | 0.00 | 63 | 1013.6 |
| 20260905162004 | 88 | 343 | 1.0 | 3.0 | 0.00 | 0.95 | 0.00 | 64 | 1013.6 |
| 20260905161518 | 88 | 101 | 1.0 | 3.0 | 0.00 | 0.95 | 0.00 | 63 | 1013.6 |
| 20260905161004 | 86 | 64 | 0.0 | 2.0 | 0.00 | 0.95 | 0.00 | 70 | 1013.6 |
| 20260905160504 | 86 | 195 | 1.0 | 2.0 | 0.00 | 0.95 | 0.00 | 70 | 1013.6 |
| 20260905160029 | 86 | 124 | 1.0 | 3.0 | 0.00 | 0.95 | 0.00 | 70 | 1013.6 |
| 20260905155503 | 87 | 212 | 1.0 | 4.0 | 0.00 | 0.95 | 0.00 | 69 | 1013.6 |
| 20260905155006 | 87 | 110 | 1.0 | 4.0 | 0.00 | 0.95 | 0.00 | 69 | 1013.6 |
| 20260905154518 | 87 | 250 | 1.0 | 4.0 | 0.00 | 0.95 | 0.00 | 70 | 1013.6 |
| 20260905154004 | 86 | 287 | 1.0 | 3.0 | 0.00 | 0.95 | 0.00 | 71 | 1013.6 |
| 20260905153503 | 86 | 175 | 1.0 | 3.0 | 0.00 | 0.95 | 0.00 | 72 | 1013.6 |
| 20260905153027 | 86 | 240 | 1.0 | 3.0 | 0.00 | 0.95 | 0.00 | 71 | 1013.6 |
| 20260905152003 | 85 | 156 | 1.0 | 4.0 | 0.00 | 0.95 | 0.00 | 73 | 1013.6 |
| 20260905151519 | 85 | 274 | 1.0 | 4.0 | 0.00 | 0.95 | 0.00 | 75 | 1013.7 |
| 20260905151004 | 84 | 305 | 1.0 | 3.0 | 0.00 | 0.95 | 0.00 | 76 | 1013.6 |
| 20260905150503 | 85 | 209 | 1.0 | 3.0 | 0.00 | 0.95 | 0.00 | 75 | 1013.6 |
| 20260905150028 | 85 | 254 | 1.0 | 3.0 | 0.00 | 0.95 | 0.00 | 77 | 1013.6 |
| 20260905145504 | 85 | 247 | 1.0 | 3.0 | 0.00 | 0.95 | 0.00 | 78 | 1013.6 |
| 20260905145004 | 84 | 324 | 1.0 | 3.0 | 0.00 | 0.95 | 0.00 | 79 | 1013.5 |
| 20260905144003 | 84 | 291 | 1.0 | 3.0 | 0.00 | 0.95 | 0.00 | 80 | 1013.6 |
| 20260905143503 | 84 | 305 | 1.0 | 2.0 | 0.00 | 0.95 | 0.00 | 81 | 1013.6 |
| 20260905143027 | 83 | 310 | 1.0 | 2.0 | 0.00 | 0.95 | 0.00 | 83 | 1013.6 |
| 20260905142004 | 83 | 214 | 0.0 | 2.0 | 0.00 | 0.95 | 0.00 | 85 | 1013.5 |
| 20260905141519 | 82 | 193 | 1.0 | 3.0 | 0.00 | 0.95 | 0.00 | 86 | 1013.4 |
| 20260905141004 | 82 | 169 | 1.0 | 3.0 | 0.00 | 0.95 | 0.00 | 86 | 1013.5 |
| 20260905140024 | 81 | 336 | 0.0 | 2.0 | 0.00 | 0.95 | 0.00 | 88 | 1013.5 |
| 20260905135002 | 80 | 20 | 0.0 | 1.0 | 0.00 | 0.95 | 0.00 | 90 | 1013.4 |
| 20260905134516 | 80 | 20 | 0.0 | 1.0 | 0.00 | 0.95 | 0.00 | 90 | 1013.4 |
| 20260905133501 | 79 | 54 | 0.0 | 2.0 | 0.00 | 0.95 | 0.00 | 91 | 1013.3 |
| 20260905133024 | 79 | 12 | 0.0 | 1.0 | 0.00 | 0.95 | 0.00 | 91 | 1013.3 |
| 20260905132003 | 79 | 12 | 1.0 | 3.0 | 0.00 | 0.95 | 0.00 | 92 | 1013.3 |
| 20260905131516 | 78 | 103 | 0.0 | 2.0 | 0.00 | 0.95 | 0.00 | 92 | 1013.3 |
| 20260905131003 | 78 | 177 | 0.0 | 1.0 | 0.00 | 0.95 | 0.00 | 92 | 1013.3 |
| 20260905130502 | 78 | 177 | 0.0 | 1.0 | 0.00 | 0.95 | 0.00 | 92 | 1013.3 |
| 20260905130027 | 78 | 177 | 0.0 | 1.0 | 0.00 | 0.95 | 0.00 | 92 | 1013.2 |
| 20260905124517 | 77 | 177 | 0.0 | 0.0 | 0.00 | 0.95 | 0.00 | 92 | 1013.0 |
| 20260905123502 | 76 | 177 | 0.0 | 0.0 | 0.00 | 0.95 | 0.00 | 92 | 1012.9 |
| 20260905123025 | 76 | 177 | 0.0 | 0.0 | 0.00 | 0.95 | 0.00 | 92 | 1012.8 |
| 20260905122501 | 76 | 177 | 0.0 | 0.0 | 0.00 | 0.95 | 0.00 | 92 | 1012.8 |
| 20260905122004 | 76 | 177 | 0.0 | 0.0 | 0.00 | 0.95 | 0.00 | 91 | 1012.7 |
| 20260905121518 | 76 | 177 | 0.0 | 0.0 | 0.00 | 0.95 | 0.00 | 91 | 1012.7 |
| 20260905121003 | 76 | 177 | 0.0 | 0.0 | 0.00 | 0.95 | 0.00 | 91 | 1012.6 |
| 20260905120503 | 76 | 177 | 0.0 | 0.0 | 0.00 | 0.95 | 0.00 | 91 | 1012.6 |
| 20260905120023 | 76 | 177 | 0.0 | 0.0 | 0.00 | 0.95 | 0.00 | 91 | 1012.6 |
| 20260905115504 | 76 | 177 | 0.0 | 0.0 | 0.00 | 0.95 | 0.00 | 91 | 1012.5 |
| 20260905115005 | 76 | 177 | 0.0 | 0.0 | 0.00 | 0.95 | 0.00 | 91 | 1012.4 |
| 20260905114517 | 76 | 177 | 0.0 | 0.0 | 0.00 | 0.95 | 0.00 | 91 | 1012.4 |
| 20260905114004 | 76 | 177 | 0.0 | 0.0 | 0.00 | 0.95 | 0.00 | 91 | 1012.4 |
| 20260905113027 | 76 | 177 | 0.0 | 1.0 | 0.00 | 0.95 | 0.00 | 91 | 1012.2 |
| 20260905112004 | 76 | 177 | 0.0 | 0.0 | 0.00 | 0.95 | 0.00 | 91 | 1012.1 |
| 20260905111516 | 76 | 177 | 0.0 | 0.0 | 0.00 | 0.95 | 0.00 | 91 | 1012.1 |
| 20260905111002 | 76 | 177 | 0.0 | 0.0 | 0.00 | 0.95 | 0.00 | 91 | 1012.1 |
| 20260905110025 | 76 | 177 | 0.0 | 0.0 | 0.00 | 0.96 | 0.00 | 91 | 1011.9 |
| 20260905105501 | 76 | 177 | 0.0 | 1.0 | 0.00 | 0.96 | 0.00 | 91 | 1011.9 |
| 20260905105003 | 76 | 177 | 0.0 | 1.0 | 0.00 | 0.96 | 0.00 | 91 | 1011.9 |
| 20260905104517 | 76 | 177 | 0.0 | 0.0 | 0.00 | 0.96 | 0.00 | 91 | 1011.9 |
| 20260905103024 | 76 | 177 | 0.0 | 0.0 | 0.00 | 0.96 | 0.00 | 91 | 1011.9 |
| 20260905102501 | 76 | 177 | 0.0 | 0.0 | 0.00 | 0.96 | 0.00 | 91 | 1011.8 |
| 20260905101517 | 76 | 177 | 0.0 | 0.0 | 0.00 | 0.96 | 0.00 | 91 | 1011.8 |
| 20260905101002 | 76 | 177 | 0.0 | 0.0 | 0.00 | 0.96 | 0.00 | 91 | 1011.9 |
| 20260905100501 | 77 | 177 | 0.0 | 0.0 | 0.00 | 0.96 | 0.00 | 91 | 1011.8 |
| 20260905100027 | 77 | 177 | 0.0 | 0.0 | 0.00 | 0.96 | 0.00 | 91 | 1011.8 |
| 20260905095502 | 77 | 177 | 0.0 | 0.0 | 0.00 | 0.96 | 0.00 | 91 | 1011.9 |
| 20260905095003 | 76 | 177 | 0.0 | 0.0 | 0.00 | 0.96 | 0.00 | 91 | 1011.8 |
| 20260905094518 | 76 | 177 | 0.0 | 0.0 | 0.00 | 0.96 | 0.00 | 90 | 1011.7 |
| 20260905094002 | 77 | 177 | 0.0 | 0.0 | 0.00 | 0.96 | 0.00 | 91 | 1011.8 |
| 20260905093503 | 77 | 177 | 0.0 | 0.0 | 0.00 | 0.96 | 0.00 | 90 | 1011.8 |
| 20260905092501 | 77 | 177 | 0.0 | 0.0 | 0.00 | 0.96 | 0.00 | 90 | 1011.9 |
| 20260905092003 | 77 | 177 | 0.0 | 0.0 | 0.00 | 0.96 | 0.00 | 90 | 1012.0 |
| 20260905091002 | 77 | 177 | 0.0 | 0.0 | 0.00 | 0.96 | 0.00 | 90 | 1011.8 |
| 20260905090503 | 77 | 177 | 0.0 | 0.0 | 0.00 | 0.96 | 0.00 | 90 | 1011.9 |
| 20260905090026 | 77 | 177 | 0.0 | 0.0 | 0.00 | 0.96 | 0.00 | 90 | 1011.8 |
| 20260905085501 | 77 | 177 | 0.0 | 0.0 | 0.00 | 0.96 | 0.00 | 90 | 1011.7 |
| 20260905085001 | 77 | 177 | 0.0 | 0.0 | 0.00 | 0.96 | 0.00 | 90 | 1011.8 |
| 20260905084003 | 77 | 177 | 0.0 | 1.0 | 0.00 | 0.96 | 0.00 | 90 | 1011.7 |
| 20260905083501 | 77 | 177 | 0.0 | 1.0 | 0.00 | 0.96 | 0.00 | 90 | 1011.6 |
| 20260905083026 | 77 | 177 | 0.0 | 1.0 | 0.00 | 0.96 | 0.00 | 90 | 1011.6 |
| 20260905082501 | 77 | 177 | 0.0 | 1.0 | 0.00 | 0.96 | 0.00 | 90 | 1011.6 |
| 20260905082003 | 77 | 177 | 0.0 | 1.0 | 0.00 | 0.96 | 0.00 | 90 | 1011.8 |
| 20260905081516 | 77 | 177 | 0.0 | 0.0 | 0.00 | 0.96 | 0.00 | 90 | 1011.8 |
| 20260905081001 | 77 | 177 | 0.0 | 0.0 | 0.00 | 0.96 | 0.00 | 90 | 1011.8 |
| 20260905080500 | 77 | 177 | 0.0 | 0.0 | 0.00 | 0.96 | 0.00 | 90 | 1011.8 |
| 20260905080025 | 77 | 177 | 0.0 | 0.0 | 0.00 | 0.96 | 0.00 | 90 | 1011.8 |
| 20260905075500 | 77 | 177 | 0.0 | 0.0 | 0.00 | 0.96 | 0.00 | 90 | 1011.8 |
| 20260905075002 | 77 | 177 | 0.0 | 0.0 | 0.00 | 0.96 | 0.00 | 90 | 1011.8 |
| 20260905074516 | 77 | 177 | 0.0 | 0.0 | 0.00 | 0.96 | 0.00 | 89 | 1011.9 |
| 20260905074002 | 77 | 177 | 0.0 | 0.0 | 0.00 | 0.96 | 0.00 | 89 | 1011.9 |
| 20260905073500 | 77 | 177 | 0.0 | 0.0 | 0.00 | 0.96 | 0.00 | 89 | 1011.9 |
| 20260905073027 | 77 | 177 | 0.0 | 0.0 | 0.00 | 0.96 | 0.00 | 89 | 1011.9 |
| 20260905072001 | 77 | 177 | 0.0 | 0.0 | 0.00 | 0.96 | 0.00 | 89 | 1012.1 |
| 20260905071003 | 77 | 177 | 0.0 | 0.0 | 0.00 | 0.96 | 0.00 | 89 | 1012.2 |
| 20260905070501 | 78 | 177 | 0.0 | 0.0 | 0.00 | 0.96 | 0.00 | 89 | 1012.3 |
| 20260905070030 | 78 | 177 | 0.0 | 0.0 | 0.00 | 0.96 | 0.00 | 89 | 1012.2 |
| 20260905065502 | 78 | 177 | 0.0 | 0.0 | 0.00 | 0.96 | 0.00 | 89 | 1012.2 |
| 20260905065003 | 78 | 177 | 0.0 | 0.0 | 0.00 | 0.96 | 0.00 | 89 | 1012.3 |
| 20260905064516 | 78 | 177 | 0.0 | 0.0 | 0.00 | 0.96 | 0.00 | 88 | 1012.3 |
| 20260905063500 | 78 | 177 | 0.0 | 0.0 | 0.00 | 0.96 | 0.00 | 88 | 1012.3 |
| 20260905063025 | 78 | 177 | 0.0 | 0.0 | 0.00 | 0.96 | 0.00 | 88 | 1012.4 |
| 20260905062500 | 78 | 177 | 0.0 | 0.0 | 0.00 | 0.96 | 0.00 | 88 | 1012.5 |
| 20260905062003 | 78 | 177 | 0.0 | 0.0 | 0.00 | 0.96 | 0.00 | 88 | 1012.5 |
| 20260905061003 | 78 | 177 | 0.0 | 0.0 | 0.00 | 0.96 | 0.00 | 87 | 1012.5 |
| 20260905060501 | 78 | 177 | 0.0 | 0.0 | 0.00 | 0.96 | 0.00 | 88 | 1012.5 |
| 20260905060025 | 78 | 177 | 0.0 | 0.0 | 0.00 | 0.96 | 0.00 | 87 | 1012.5 |
| 20260905055500 | 78 | 177 | 0.0 | 0.0 | 0.00 | 0.96 | 0.00 | 87 | 1012.5 |
| 20260905054003 | 79 | 177 | 0.0 | 0.0 | 0.00 | 0.96 | 0.00 | 87 | 1012.4 |
| 20260905053500 | 79 | 177 | 0.0 | 0.0 | 0.00 | 0.96 | 0.00 | 87 | 1012.5 |
| 20260905053023 | 79 | 177 | 0.0 | 0.0 | 0.00 | 0.96 | 0.00 | 86 | 1012.5 |
| 20260905052500 | 79 | 177 | 0.0 | 0.0 | 0.00 | 0.96 | 0.00 | 86 | 1012.6 |
| 20260905052001 | 79 | 177 | 0.0 | 0.0 | 0.00 | 0.96 | 0.00 | 86 | 1012.5 |
| 20260905051515 | 79 | 177 | 0.0 | 1.0 | 0.00 | 0.96 | 0.00 | 86 | 1012.5 |
| 20260905051001 | 79 | 177 | 0.0 | 1.0 | 0.00 | 0.96 | 0.00 | 86 | 1012.5 |
| 20260905050500 | 79 | 177 | 0.0 | 1.0 | 0.00 | 0.96 | 0.00 | 85 | 1012.4 |
| 20260905050027 | 79 | 177 | 0.0 | 1.0 | 0.00 | 0.96 | 0.96 | 85 | 1012.5 |
| 20260905045506 | 79 | 177 | 0.0 | 1.0 | 0.00 | 0.96 | 0.96 | 85 | 1012.5 |
| 20260905045006 | 80 | 177 | 0.0 | 1.0 | 0.00 | 0.96 | 0.96 | 85 | 1012.5 |
| 20260905044007 | 80 | 165 | 0.0 | 0.0 | 0.00 | 0.96 | 0.96 | 84 | 1012.6 |
| 20260905043506 | 80 | 165 | 0.0 | 1.0 | 0.00 | 0.96 | 0.96 | 84 | 1012.6 |
| 20260905043025 | 80 | 165 | 0.0 | 2.0 | 0.00 | 0.96 | 0.96 | 84 | 1012.5 |
| 20260905042506 | 80 | 165 | 0.0 | 2.0 | 0.00 | 0.96 | 0.96 | 83 | 1012.6 |
| 20260905042006 | 80 | 165 | 0.0 | 2.0 | 0.00 | 0.96 | 0.96 | 83 | 1012.6 |
| 20260905041521 | 80 | 137 | 0.0 | 2.0 | 0.00 | 0.96 | 0.96 | 83 | 1012.6 |
| 20260905041007 | 80 | 195 | 0.0 | 2.0 | 0.00 | 0.96 | 0.96 | 83 | 1012.6 |
| 20260905040505 | 80 | 165 | 0.0 | 2.0 | 0.00 | 0.96 | 0.96 | 83 | 1012.6 |
| 20260905040028 | 80 | 168 | 0.0 | 1.0 | 0.00 | 0.96 | 0.96 | 82 | 1012.7 |
| 20260905035506 | 80 | 168 | 0.0 | 1.0 | 0.00 | 0.96 | 0.96 | 82 | 1012.7 |
| 20260905035005 | 80 | 168 | 0.0 | 1.0 | 0.00 | 0.96 | 0.96 | 82 | 1012.8 |
| 20260905034521 | 80 | 168 | 0.0 | 3.0 | 0.00 | 0.96 | 0.96 | 82 | 1012.8 |
| 20260905034006 | 80 | 108 | 0.0 | 3.0 | 0.00 | 0.96 | 0.96 | 82 | 1012.8 |
| 20260905033026 | 80 | 103 | 0.0 | 1.0 | 0.00 | 0.96 | 0.96 | 82 | 1012.8 |
| 20260905032505 | 80 | 131 | 0.0 | 1.0 | 0.00 | 0.96 | 0.96 | 82 | 1012.7 |
| 20260905032005 | 80 | 131 | 0.0 | 2.0 | 0.00 | 0.96 | 0.96 | 82 | 1012.7 |
| 20260905031007 | 80 | 131 | 0.0 | 1.0 | 0.00 | 0.96 | 0.96 | 81 | 1012.8 |
| 20260905030028 | 80 | 131 | 0.0 | 1.0 | 0.00 | 0.96 | 0.96 | 81 | 1012.8 |
| 20260905025506 | 80 | 131 | 0.0 | 1.0 | 0.00 | 0.96 | 0.96 | 82 | 1012.8 |
| 20260905025006 | 80 | 131 | 0.0 | 0.0 | 0.00 | 0.96 | 0.96 | 82 | 1012.7 |
| 20260905024008 | 80 | 131 | 0.0 | 1.0 | 0.00 | 0.96 | 0.96 | 81 | 1012.6 |
| 20260905023506 | 80 | 131 | 0.0 | 1.0 | 0.00 | 0.96 | 0.96 | 81 | 1012.4 |
| 20260905023027 | 80 | 131 | 0.0 | 1.0 | 0.00 | 0.96 | 0.96 | 80 | 1012.4 |
| 20260905022506 | 79 | 131 | 0.0 | 1.0 | 0.00 | 0.96 | 0.96 | 80 | 1012.4 |
| 20260905022006 | 79 | 131 | 0.0 | 1.0 | 0.00 | 0.96 | 0.96 | 80 | 1012.3 |
| 20260905021524 | 79 | 131 | 0.0 | 1.0 | 0.00 | 0.96 | 0.96 | 80 | 1012.4 |
| 20260905021006 | 79 | 131 | 0.0 | 2.0 | 0.00 | 0.96 | 0.96 | 79 | 1012.3 |
| 20260905020505 | 79 | 94 | 0.0 | 2.0 | 0.00 | 0.96 | 0.96 | 79 | 1012.2 |
| 20260905020029 | 79 | 150 | 0.0 | 2.0 | 0.00 | 0.96 | 0.96 | 79 | 1012.2 |
| 20260905015504 | 79 | 106 | 1.0 | 2.0 | 0.00 | 0.96 | 0.96 | 79 | 1012.1 |
| 20260905015006 | 79 | 192 | 1.0 | 2.0 | 0.00 | 0.96 | 0.96 | 79 | 1011.9 |
| 20260905014520 | 79 | 88 | 1.0 | 4.0 | 0.00 | 0.96 | 0.96 | 80 | 1012.1 |
| 20260905014006 | 79 | 77 | 1.0 | 4.0 | 0.00 | 0.96 | 0.96 | 80 | 1012.0 |
| 20260905013505 | 79 | 115 | 1.0 | 2.0 | 0.00 | 0.96 | 0.96 | 81 | 1011.9 |
| 20260905013027 | 79 | 141 | 2.0 | 4.0 | 0.00 | 0.96 | 0.96 | 80 | 1011.8 |
| 20260905012505 | 79 | 141 | 2.0 | 5.0 | 0.00 | 0.96 | 0.96 | 79 | 1011.9 |
| 20260905011005 | 80 | 108 | 3.0 | 7.0 | 0.00 | 0.96 | 0.96 | 76 | 1011.8 |
| 20260905010505 | 81 | 116 | 3.0 | 7.0 | 0.00 | 0.96 | 0.96 | 74 | 1011.9 |
| 20260905010027 | 81 | 191 | 4.0 | 11.0 | 0.00 | 0.96 | 0.96 | 74 | 1011.8 |
| 20260905005503 | 81 | 353 | 3.0 | 9.0 | 0.00 | 0.96 | 0.96 | 75 | 1011.8 |
| 20260905005004 | 82 | 137 | 4.0 | 13.0 | 0.00 | 0.96 | 0.96 | 74 | 1011.9 |
| 20260905004519 | 83 | 353 | 5.0 | 13.0 | 0.00 | 0.96 | 0.96 | 72 | 1011.8 |
| 20260905004006 | 84 | 164 | 4.0 | 11.0 | 0.00 | 0.96 | 0.96 | 70 | 1011.9 |
| 20260905003503 | 86 | 177 | 3.0 | 11.0 | 0.00 | 0.96 | 0.96 | 68 | 1011.5 |
| 20260905003028 | 87 | 162 | 1.0 | 12.0 | 0.00 | 0.96 | 0.96 | 67 | 1011.7 |
| 20260905001519 | 88 | 85 | 2.0 | 5.0 | 0.00 | 0.96 | 0.96 | 66 | 1011.1 |
| 20260905001005 | 88 | 64 | 2.0 | 7.0 | 0.00 | 0.96 | 0.96 | 66 | 1011.1 |
| 20260905000504 | 88 | 68 | 2.0 | 8.0 | 0.00 | 0.96 | 0.96 | 66 | 1011.0 |
| 20260905000027 | 88 | 54 | 2.0 | 8.0 | 0.00 | 0.96 | 0.96 | 66 | 1011.1 |
| 20260904235504 | 88 | 29 | 2.0 | 5.0 | 0.00 | 0.96 | 0.96 | 66 | 1011.1 |
| 20260904235006 | 88 | 35 | 2.0 | 5.0 | 0.00 | 0.96 | 0.96 | 65 | 1011.2 |
| 20260904234518 | 89 | 75 | 2.0 | 8.0 | 0.00 | 0.96 | 0.96 | 64 | 1011.1 |
| 20260904234006 | 89 | 77 | 3.0 | 9.0 | 0.00 | 0.96 | 0.96 | 64 | 1011.1 |
| 20260904233505 | 90 | 330 | 2.0 | 9.0 | 0.00 | 0.96 | 0.96 | 64 | 1011.2 |
| 20260904233029 | 90 | 344 | 2.0 | 7.0 | 0.00 | 0.96 | 0.96 | 65 | 1011.1 |
| 20260904232505 | 90 | 80 | 3.0 | 10.0 | 0.00 | 0.96 | 0.96 | 64 | 1011.1 |
| 20260904232004 | 90 | 69 | 2.0 | 10.0 | 0.00 | 0.96 | 0.96 | 63 | 1011.0 |
| 20260904230504 | 90 | 43 | 3.0 | 7.0 | 0.00 | 0.96 | 0.96 | 62 | 1011.1 |
| 20260904230024 | 91 | 83 | 2.0 | 6.0 | 0.00 | 0.96 | 0.96 | 60 | 1011.0 |
| 20260904225504 | 92 | 111 | 2.0 | 5.0 | 0.00 | 0.96 | 0.96 | 59 | 1011.1 |
| 20260904225007 | 92 | 85 | 2.0 | 6.0 | 0.00 | 0.96 | 0.96 | 59 | 1011.1 |
| 20260904224519 | 92 | 116 | 2.0 | 6.0 | 0.00 | 0.96 | 0.96 | 58 | 1011.1 |
| 20260904224004 | 92 | 42 | 3.0 | 6.0 | 0.00 | 0.96 | 0.96 | 58 | 1011.0 |
| 20260904223503 | 92 | 101 | 3.0 | 6.0 | 0.00 | 0.96 | 0.96 | 60 | 1011.1 |
| 20260904223028 | 92 | 46 | 3.0 | 9.0 | 0.00 | 0.96 | 0.96 | 59 | 1011.1 |
| 20260904222504 | 93 | 70 | 2.0 | 7.0 | 0.00 | 0.96 | 0.96 | 56 | 1011.2 |
| 20260904222005 | 93 | 38 | 2.0 | 6.0 | 0.00 | 0.96 | 0.96 | 55 | 1011.2 |
| 20260904221519 | 93 | 54 | 2.0 | 4.0 | 0.00 | 0.96 | 0.96 | 53 | 1011.2 |
| 20260904221007 | 93 | 52 | 2.0 | 6.0 | 0.00 | 0.96 | 0.96 | 54 | 1011.3 |
| 20260904220504 | 93 | 257 | 1.0 | 6.0 | 0.00 | 0.96 | 0.96 | 53 | 1011.4 |
| 20260904220029 | 93 | 75 | 1.0 | 2.0 | 0.00 | 0.96 | 0.96 | 55 | 1011.4 |
| 20260904215505 | 91 | 134 | 1.0 | 6.0 | 0.00 | 0.97 | 0.96 | 55 | 1011.5 |
| 20260904215005 | 92 | 183 | 1.0 | 6.0 | 0.00 | 0.97 | 0.96 | 59 | 1011.4 |
| 20260904214518 | 92 | 131 | 1.0 | 3.0 | 0.00 | 0.97 | 0.96 | 57 | 1011.3 |
| 20260904213503 | 92 | 176 | 1.0 | 3.0 | 0.00 | 0.97 | 0.96 | 56 | 1011.4 |
| 20260904213026 | 91 | 227 | 1.0 | 2.0 | 0.00 | 0.97 | 0.96 | 61 | 1011.4 |
| 20260904212503 | 91 | 172 | 1.0 | 2.0 | 0.00 | 0.97 | 0.96 | 59 | 1011.5 |
| 20260904212005 | 91 | 250 | 1.0 | 3.0 | 0.00 | 0.97 | 0.96 | 60 | 1011.5 |
| 20260904211519 | 90 | 268 | 1.0 | 3.0 | 0.00 | 0.97 | 0.96 | 61 | 1011.5 |
| 20260904211006 | 89 | 290 | 1.0 | 4.0 | 0.00 | 0.97 | 0.96 | 64 | 1011.6 |
| 20260904210026 | 90 | 159 | 1.0 | 4.0 | 0.00 | 1.06 | 0.96 | 61 | 1011.8 |
| 20260904205503 | 91 | 196 | 2.0 | 5.0 | 0.00 | 1.06 | 0.96 | 61 | 1011.9 |
| 20260904205004 | 91 | 227 | 2.0 | 5.0 | 0.00 | 1.06 | 0.96 | 61 | 1012.0 |
| 20260904204517 | 90 | 246 | 1.0 | 3.0 | 0.00 | 1.06 | 0.96 | 63 | 1012.1 |